Simultaneous Nadir Overpasses (SNOs) Predictions

Prediction of SNOs between FY3D and TERRA Satellite Orbit:

Table of predicted SNOs for the next 14.0 days since TLE Epoch: 12/11/2021
Index Date (FY3D) Time (FY3D) Lat,Lon (FY3D) SZA (FY3D ) Date (TERRA) Time (TERRA) Lat,Lon (TERRA) SZA (TERRA ) Distance(km) Time Diff (sec)
1 12/11/2021 04:41:40 70.55, 109.58 93.46 12/11/2021 04:41:28 70.54, 109.53 93.45 2.19 12
2 12/11/2021 05:32:15 -70.05, -82.33 87.03 12/11/2021 05:31:04 -70.08, -83.49 87.01 44.17 71
3 12/13/2021 19:18:07 70.67,-109.71 93.77 12/13/2021 19:18:57 70.67,-109.66 93.77 1.84 50
4 12/13/2021 20:08:49 -70.53, 57.83 86.37 12/13/2021 20:08:27 -70.55, 57.80 86.35 2.43 22
5 12/16/2021 10:45:16 -70.65,-161.45 86.12 12/16/2021 10:45:57 -70.64,-161.48 86.14 2.19 41
6 12/16/2021 11:36:01 70.56, 6.01 93.79 12/16/2021 11:35:24 70.53, 6.01 93.76 3.33 37
7 12/19/2021 02:12:26 70.64, 146.80 93.95 12/19/2021 02:12:52 70.66, 146.81 93.97 2.49 26
8 12/19/2021 03:03:09 -70.54, -45.72 86.16 12/19/2021 03:02:22 -70.55, -45.73 86.15 0.99 47
9 12/21/2021 16:49:04 71.34, -73.48 94.68 12/21/2021 16:50:12 71.27, -71.64 94.61 66.15 68
10 12/21/2021 17:39:36 -70.66, 94.99 86.01 12/21/2021 17:39:51 -70.67, 95.06 86.00 2.99 15
11 12/21/2021 18:30:20 70.53, -97.49 93.87 12/21/2021 18:29:19 70.51, -97.54 93.84 3.34 61
12 12/24/2021 08:16:07 -70.99,-124.65 85.70 12/24/2021 08:17:18 -70.90,-123.98 85.80 26.39 71
13 12/24/2021 09:06:46 70.61, 43.29 93.92 12/24/2021 09:06:48 70.62, 43.24 93.93 2.10 2
14 12/24/2021 09:57:29 -70.50,-149.21 86.20 12/24/2021 09:56:18 -70.52,-149.28 86.19 3.24 71



Historial Predications of SNOs between FY3D and TERRA
